Regional Weather Roundup
Issued by NWS

Home | Current Version | Previous Version | Graphics & Text | Print | Product List | Glossary Off
Versions: 1 2 3 4 5 6 7 8 9 10 11 12 13 14 15 16 17 18 19 20 21 22 23 24 25 26 27 28 29 30 31 32 33 34 35 36 37 38 39 40 41 42 43 44 45 46 47 48 49 50

000
ASUS43 KTOP 191508
RWRKS

WEATHER ROUNDUP FOR KANSAS
NATIONAL WEATHER SERVICE GOODLAND KS
1000 AM CDT SAT APR 19 2014

NOTE:  "FAIR" INDICATES FEW OR NO CLOUDS BELOW 12,000 FEET WITH NO
SIGNIFICANT WEATHER AND/OR OBSTRUCTIONS TO VISIBILITY.

KSZ001>006-013>018-027>032-041>047-191600-
NORTHWEST KANSAS

CITY           SKY/WX    TMP DP  RH WIND       PRES   REMARKS
GOODLAND       MOSUNNY   61  44  53 N15       29.92S
HAYS           CLOUDY    64  48  55 S28       29.96F
HILL CITY      CLOUDY    62  47  57 S12G24    29.92F
RUSSELL        CLOUDY    66  49  54 S31G38    29.97F
$$

KSZ061>065-074>080-084>089-191600-
SOUTHWEST KANSAS

CITY           SKY/WX    TMP DP  RH WIND       PRES   REMARKS
DODGE CITY     SUNNY     62  48  60 S25G41    30.00F
ELKHART          N/A     61  42  49 SW16        N/A
GARDEN CITY    SUNNY     62  46  55 S17G28    29.97S
GREAT BEND     CLOUDY    63  48  59 S32G40    29.98F
LIBERAL        PTSUNNY   63  46  55 S22G31    30.02S
PRATT          PTSUNNY   63  48  59 S30       30.05F
$$

KSZ066>073-081>083-090>101-191600-
SOUTHEAST KANSAS

CITY           SKY/WX    TMP DP  RH WIND       PRES   REMARKS
CHANUTE        MOSUNNY   65  46  50 S17       30.19R
COFFEYVILLE    MOSUNNY   65  49  56 S16       30.19S
HUTCHINSON     CLOUDY    64  46  52 S23       30.07F
MEDICINE LODGE   N/A     69  49  48 S15G25    30.07F
NEWTON         CLOUDY    63  43  48 S18G30    30.13F
PARSONS        MOSUNNY   66  48  52 S10       30.20R
WICHITA INTL   CLOUDY    63  46  54 S18       30.11F
WICHITA JABRA  CLOUDY    65  46  50 S15       30.12S
WICHITA MCCONL CLOUDY    65  47  51 S23       30.12F
WINFIELD       PTSUNNY   65  46  50 S17G24    30.16S
$$

KSZ007>012-019>026-033>040-048>060-102>105-191600-
NORTHEAST KANSAS

CITY           SKY/WX    TMP DP  RH WIND       PRES   REMARKS
CONCORDIA      CLOUDY    63  48  58 S24G36    30.01F
EMPORIA        MOSUNNY   63  44  50 S16       30.13F
LAWRENCE       PTSUNNY   66  47  50 S10       30.15S
MANHATTAN      PTSUNNY   68  46  45 S17G24    30.07F
OLATHE IND     MOSUNNY   63  46  54 S10       30.17S
OLATHE EXE     MOSUNNY   63  46  54 S13       30.16F
SALINA         CLOUDY    65  48  54 S18G30    30.04F
TOPEKA BILLARD MOSUNNY   65  45  48 S12       30.13F
TOPEKA FORBES  MOSUNNY   66  44  45 S12       30.13F
$$



USA.gov is the U.S. government's official web portal to all federal, state and local government web resources and services.